TimeEDT,TemperatureF,Dew PointF,Humidity,Sea Level PressureIn,VisibilityMPH,Wind Direction,Wind SpeedMPH,Gust SpeedMPH,PrecipitationIn,Events,Conditions,WindDirDegrees,DateUTC
12:15 AM,33.8,28.4,81,30.41,10.0,Calm,Calm,-,N/A,,Clear,0,2011-11-01 04:15:00
12:35 AM,33.8,28.4,81,30.40,10.0,Calm,Calm,-,N/A,,Clear,0,2011-11-01 04:35:00
12:55 AM,33.8,28.4,81,30.40,10.0,Calm,Calm,-,N/A,,Clear,0,2011-11-01 04:55:00
1:15 AM,32.0,26.6,80,30.40,10.0,Calm,Calm,-,N/A,,Clear,0,2011-11-01 05:15:00
1:35 AM,32.0,26.6,80,30.39,10.0,Calm,Calm,-,N/A,,Clear,0,2011-11-01 05:35:00
1:55 AM,32.0,28.4,87,30.39,10.0,Calm,Calm,-,N/A,,Clear,0,2011-11-01 05:55:00
2:15 AM,32.0,26.6,80,30.38,10.0,Calm,Calm,-,N/A,,Clear,0,2011-11-01 06:15:00
2:35 AM,32.0,26.6,80,30.38,10.0,Calm,Calm,-,N/A,,Clear,0,2011-11-01 06:35:00
2:55 AM,32.0,26.6,80,30.38,10.0,Calm,Calm,-,N/A,,Clear,0,2011-11-01 06:55:00
3:15 AM,32.0,28.4,87,30.38,10.0,Calm,Calm,-,N/A,,Partly Cloudy,0,2011-11-01 07:15:00
3:35 AM,32.0,26.6,80,30.38,10.0,Calm,Calm,-,N/A,,Partly Cloudy,0,2011-11-01 07:35:00
3:55 AM,32.0,28.4,87,30.38,10.0,Calm,Calm,-,N/A,,Clear,0,2011-11-01 07:55:00
4:15 AM,32.0,28.4,87,30.38,10.0,Calm,Calm,-,N/A,,Clear,0,2011-11-01 08:15:00
4:35 AM,32.0,26.6,80,30.38,10.0,Calm,Calm,-,N/A,,Clear,0,2011-11-01 08:35:00
4:55 AM,30.2,26.6,86,30.38,10.0,West,3.5,-,N/A,,Clear,270,2011-11-01 08:55:00
5:15 AM,32.0,26.6,80,30.38,8.0,Calm,Calm,-,N/A,,Scattered Clouds,0,2011-11-01 09:15:00
5:35 AM,30.2,26.6,86,30.40,10.0,West,3.5,-,N/A,,Mostly Cloudy,260,2011-11-01 09:35:00
5:55 AM,33.8,28.4,81,30.40,9.0,NW,3.5,-,N/A,,Scattered Clouds,310,2011-11-01 09:55:00
6:15 AM,30.2,26.6,86,30.39,10.0,Calm,Calm,-,N/A,,Scattered Clouds,0,2011-11-01 10:15:00
6:35 AM,30.2,26.6,86,30.39,10.0,Calm,Calm,-,N/A,,Partly Cloudy,0,2011-11-01 10:35:00
6:55 AM,30.2,26.6,86,30.39,10.0,Calm,Calm,-,N/A,,Clear,0,2011-11-01 10:55:00
7:15 AM,30.2,26.6,86,30.38,10.0,Calm,Calm,-,N/A,,Clear,0,2011-11-01 11:15:00
7:35 AM,30.2,26.6,86,30.39,10.0,Calm,Calm,-,N/A,,Scattered Clouds,0,2011-11-01 11:35:00
7:55 AM,30.2,26.6,86,30.39,9.0,Calm,Calm,-,N/A,,Scattered Clouds,0,2011-11-01 11:55:00
8:15 AM,32.0,28.4,87,30.40,9.0,Calm,Calm,-,N/A,,Clear,0,2011-11-01 12:15:00
8:35 AM,33.8,30.2,87,30.39,7.0,Calm,Calm,-,N/A,,Clear,0,2011-11-01 12:35:00
9:15 AM,39.2,35.6,87,30.39,10.0,Calm,Calm,-,N/A,,Clear,0,2011-11-01 13:15:00
9:35 AM,39.2,35.6,87,30.38,10.0,Calm,Calm,-,N/A,,Clear,0,2011-11-01 13:35:00
9:55 AM,42.8,37.4,81,30.38,10.0,Calm,Calm,-,N/A,,Scattered Clouds,0,2011-11-01 13:55:00
10:15 AM,46.4,41.0,81,30.40,10.0,Calm,Calm,-,N/A,,Mostly Cloudy,0,2011-11-01 14:15:00
10:35 AM,48.2,37.4,66,30.39,10.0,Calm,Calm,-,N/A,,Mostly Cloudy,0,2011-11-01 14:35:00
10:55 AM,50.0,35.6,58,30.40,10.0,SSE,9.2,-,N/A,,Scattered Clouds,160,2011-11-01 14:55:00
11:15 AM,50.0,33.8,54,30.40,10.0,SSE,6.9,-,N/A,,Partly Cloudy,150,2011-11-01 15:15:00
11:35 AM,48.2,33.8,58,30.40,10.0,South,5.8,-,N/A,,Clear,180,2011-11-01 15:35:00
11:55 AM,48.2,33.8,58,30.40,10.0,SE,8.1,-,N/A,,Partly Cloudy,140,2011-11-01 15:55:00
12:15 PM,50.0,35.6,58,30.40,10.0,SSE,9.2,-,N/A,,Partly Cloudy,160,2011-11-01 16:15:00
12:35 PM,50.0,33.8,54,30.39,10.0,SSE,9.2,-,N/A,,Partly Cloudy,160,2011-11-01 16:35:00
12:55 PM,50.0,33.8,54,30.38,10.0,SE,9.2,-,N/A,,Partly Cloudy,140,2011-11-01 16:55:00
1:15 PM,50.0,33.8,54,30.38,10.0,SSE,6.9,-,N/A,,Partly Cloudy,160,2011-11-01 17:15:00
1:35 PM,48.2,33.8,58,30.37,10.0,SSE,5.8,-,N/A,,Clear,150,2011-11-01 17:35:00
1:55 PM,48.2,32.0,54,30.37,10.0,SE,5.8,-,N/A,,Clear,130,2011-11-01 17:55:00
2:15 PM,48.2,33.8,58,30.35,10.0,South,6.9,-,N/A,,Clear,170,2011-11-01 18:15:00
2:35 PM,50.0,32.0,50,30.36,10.0,SSE,5.8,-,N/A,,Partly Cloudy,150,2011-11-01 18:35:00
2:55 PM,48.2,32.0,54,30.36,10.0,SSE,4.6,-,N/A,,Clear,150,2011-11-01 18:55:00
3:15 PM,48.2,32.0,54,30.36,10.0,SSE,5.8,-,N/A,,Clear,150,2011-11-01 19:15:00
3:35 PM,48.2,32.0,54,30.36,10.0,South,4.6,-,N/A,,Clear,180,2011-11-01 19:35:00
3:55 PM,48.2,32.0,54,30.36,10.0,SE,4.6,-,N/A,,Clear,140,2011-11-01 19:55:00
4:15 PM,48.2,32.0,54,30.37,10.0,SSE,5.8,-,N/A,,Clear,150,2011-11-01 20:15:00
4:35 PM,48.2,32.0,54,30.37,10.0,South,5.8,-,N/A,,Clear,170,2011-11-01 20:35:00
5:15 PM,48.2,32.0,54,30.37,10.0,Calm,Calm,-,N/A,,Clear,0,2011-11-01 21:15:00
5:35 PM,44.6,30.2,57,30.37,10.0,Calm,Calm,-,N/A,,Partly Cloudy,0,2011-11-01 21:35:00
5:55 PM,39.2,28.4,65,30.37,10.0,Calm,Calm,-,N/A,,Partly Cloudy,0,2011-11-01 21:55:00
6:15 PM,39.2,30.2,70,30.37,10.0,Calm,Calm,-,N/A,,Partly Cloudy,0,2011-11-01 22:15:00
6:35 PM,37.4,30.2,75,30.38,10.0,Calm,Calm,-,N/A,,Clear,0,2011-11-01 22:35:00
7:15 PM,35.6,28.4,75,30.38,10.0,Calm,Calm,-,N/A,,Clear,0,2011-11-01 23:15:00
7:35 PM,35.6,28.4,75,30.38,10.0,Calm,Calm,-,N/A,,Clear,0,2011-11-01 23:35:00
7:55 PM,33.8,28.4,81,30.38,10.0,Calm,Calm,-,N/A,,Clear,0,2011-11-01 23:55:00
8:15 PM,33.8,28.4,81,30.38,10.0,Calm,Calm,-,N/A,,Clear,0,2011-11-02 00:15:00
8:35 PM,33.8,28.4,81,30.37,10.0,Calm,Calm,-,N/A,,Clear,0,2011-11-02 00:35:00
8:55 PM,32.0,26.6,80,30.37,10.0,Calm,Calm,-,N/A,,Clear,0,2011-11-02 00:55:00
9:15 PM,30.2,26.6,86,30.37,10.0,Calm,Calm,-,N/A,,Clear,0,2011-11-02 01:15:00
9:35 PM,30.2,26.6,86,30.37,10.0,Calm,Calm,-,N/A,,Clear,0,2011-11-02 01:35:00
9:55 PM,30.2,26.6,86,30.37,10.0,Calm,Calm,-,N/A,,Clear,0,2011-11-02 01:55:00
10:15 PM,30.2,26.6,86,30.37,10.0,West,3.5,-,N/A,,Clear,280,2011-11-02 02:15:00
10:35 PM,30.2,26.6,86,30.37,10.0,Calm,Calm,-,N/A,,Clear,0,2011-11-02 02:35:00
10:55 PM,30.2,26.6,86,30.36,10.0,Calm,Calm,-,N/A,,Clear,0,2011-11-02 02:55:00
11:15 PM,30.2,26.6,86,30.35,10.0,West,3.5,-,N/A,,Clear,280,2011-11-02 03:15:00
11:35 PM,30.2,26.6,86,30.35,10.0,Calm,Calm,-,N/A,,Clear,0,2011-11-02 03:35:00
11:55 PM,30.2,26.6,86,30.35,9.0,Calm,Calm,-,N/A,,Clear,0,2011-11-02 03:55:00